Weather History for KPHF - May, 2013

Change the Weather History Date:

Tuesday, May 14, 2013

  Actual Average Record
Temperature  
Mean Temperature 56 °F -  
Max Temperature 70 °F 77 °F 98 °F (1956)
Min Temperature 42 °F 58 °F 41 °F (2001)
Degree Days  
Heating Degree Days 10    
Growing Degree Days 6 (Base 50)    
Moisture  
Dew Point 33 °F    
Average Humidity 42    
Maximum Humidity 76    
Minimum Humidity 24    
Precipitation  
Precipitation 0.00 in - - ()
Sea Level Pressure  
Sea Level Pressure 30.16 in    
Wind  
Wind Speed 5 mph (WSW)    
Max Wind Speed 15 mph    
Max Gust Speed 21 mph    
Visibility 10 miles    
Events      
Averages and records for this station are not official NWS values.
T = Trace of Precipitation, MM = Missing Value Source: NWS Daily Summary

Daily Weather History Graph

Daily Weather History Graph

Search for Another Location

Airport or City:

Trip Planner

Search our weather history database for the weather conditions in past years. The results will help you decide how hot, cold, wet, or windy it might be!

Date:

Astronomy

May. 14, 2013 Rise Set
Actual Time 5:58 AM EDT 8:06 PM EDT
Civil Twilight 5:29 AM EDT 8:35 PM EDT
Nautical Twilight 4:53 AM EDT 9:11 PM EDT
Astronomical Twilight 4:15 AM EDT 9:50 PM EDT
Moon 9:35 AM EDT (5/14) 11:53 PM EDT (5/14)
Length of Visible Light 15h 06m
Length of Day
14h 08m
Waxing Crescent, 19% of the Moon is Illuminated
May 14
Waxing Crescent
May 18
First Quarter
May 25
Full
May 31
Last Quarter
Jun 8
New

Hourly Weather History & Observations

Time (EDT) Temp. Windchill Dew Point Humidity Pressure Visibility Wind Dir Wind Speed Gust Speed Precip Events Conditions
12:54 AM 48.0 °F - 33.1 °F 56% 30.17 in 10.0 mi NNW 4.6 mph - N/A   Clear
1:54 AM 46.0 °F 43.9 °F 33.1 °F 61% 30.17 in 10.0 mi North 4.6 mph - N/A   Clear
2:54 AM 46.9 °F - 32.0 °F 56% 30.17 in 10.0 mi Calm Calm - N/A   Clear
3:54 AM 46.0 °F - 33.1 °F 61% 30.17 in 10.0 mi Calm Calm - N/A   Clear
4:54 AM 44.1 °F - 34.0 °F 68% 30.17 in 10.0 mi Calm Calm - N/A   Clear
5:54 AM 42.1 °F - 34.0 °F 73% 30.19 in 10.0 mi Calm Calm - N/A   Clear
6:54 AM 44.1 °F - 37.0 °F 76% 30.20 in 10.0 mi Calm Calm - N/A   Clear
7:54 AM 53.1 °F - 39.9 °F 61% 30.22 in 10.0 mi North 5.8 mph - N/A   Clear
8:54 AM 57.9 °F - 32.0 °F 37% 30.22 in 10.0 mi NNW 8.1 mph - N/A   Clear
9:54 AM 61.0 °F - 28.9 °F 30% 30.22 in 10.0 mi NNW 10.4 mph - N/A   Clear
10:54 AM 62.1 °F - 26.1 °F 25% 30.24 in 10.0 mi West 8.1 mph 17.3 mph N/A   Clear
11:54 AM 63.0 °F - 25.0 °F 24% 30.22 in 10.0 mi WNW 8.1 mph 16.1 mph N/A   Clear
12:54 PM 64.0 °F - 27.0 °F 25% 30.20 in 10.0 mi WSW 15.0 mph 20.7 mph N/A   Clear
1:54 PM 66.0 °F - 28.0 °F 24% 30.18 in 10.0 mi NW 12.7 mph 17.3 mph N/A   Clear
2:54 PM 66.0 °F - 30.0 °F 26% 30.15 in 10.0 mi SSW 5.8 mph - N/A   Clear
3:54 PM 68.0 °F - 30.0 °F 24% 30.13 in 10.0 mi SW 8.1 mph - N/A   Clear
4:54 PM 68.0 °F - 30.9 °F 25% 30.13 in 10.0 mi Variable 4.6 mph - N/A   Clear
5:54 PM 69.1 °F - 32.0 °F 25% 30.11 in 10.0 mi SW 5.8 mph - N/A   Clear
6:54 PM 66.9 °F - 34.0 °F 30% 30.10 in 10.0 mi SSW 6.9 mph - N/A   Clear
7:54 PM 64.9 °F - 34.0 °F 32% 30.10 in 10.0 mi SSE 4.6 mph - N/A   Clear
8:54 PM 64.9 °F - 36.0 °F 34% 30.10 in 10.0 mi SSE 6.9 mph - N/A   Mostly Cloudy
9:54 PM 63.0 °F - 42.1 °F 46% 30.12 in 10.0 mi SSE 8.1 mph - N/A   Overcast
10:54 PM 63.0 °F - 43.0 °F 48% 30.11 in 10.0 mi South 8.1 mph - N/A   Overcast
11:54 PM 64.0 °F - 42.1 °F 45% 30.10 in 10.0 mi South 6.9 mph - N/A   Overcast